�������l�o���
Date,Time,MP-1(��Sv/h),MP-2(��Sv/h),MP-3(��Sv/h),MP-4(��Sv/h),MP-5(��Sv/h),MP-6(��Sv/h),MP-7(��Sv/h),MP-8(��Sv/h),����,����(m/s),���J
2023/05/17,00:00,0.560,0.817,0.494,0.993,0.719,0.324,0.577,0.542,��쐼,1.7,��
2023/05/17,00:10,0.560,0.817,0.492,0.992,0.715,0.324,0.576,0.541,��,2.0,��
2023/05/17,00:20,0.558,0.819,0.495,0.996,0.717,0.324,0.577,0.541,��,1.9,��
2023/05/17,00:30,0.558,0.817,0.492,0.993,0.718,0.324,0.578,0.541,��쐼,0.9,��
2023/05/17,00:40,0.560,0.817,0.492,0.994,0.717,0.324,0.576,0.541,��,3.7,��
2023/05/17,00:50,0.559,0.817,0.493,0.992,0.718,0.324,0.577,0.541,��,4.1,��
2023/05/17,01:00,0.559,0.817,0.493,0.992,0.717,0.325,0.578,0.544,��,4.5,��
2023/05/17,01:10,0.560,0.818,0.493,0.993,0.719,0.324,0.577,0.541,��,4.5,��
2023/05/17,01:20,0.560,0.818,0.494,0.994,0.716,0.324,0.578,0.542,��,5.4,��
2023/05/17,01:30,0.557,0.817,0.494,0.994,0.716,0.324,0.577,0.540,��,4.8,��
2023/05/17,01:40,0.558,0.817,0.494,0.992,0.717,0.324,0.578,0.541,��,6.0,��
2023/05/17,01:50,0.559,0.819,0.495,0.993,0.719,0.324,0.579,0.543,��,5.0,��
2023/05/17,02:00,0.559,0.818,0.493,0.993,0.716,0.324,0.579,0.542,��쓌,4.0,��
2023/05/17,02:10,0.559,0.816,0.493,0.993,0.718,0.324,0.577,0.542,��쓌,4.1,��
2023/05/17,02:20,0.560,0.818,0.494,0.994,0.716,0.324,0.577,0.542,��쓌,4.6,��
2023/05/17,02:30,0.558,0.816,0.492,0.993,0.717,0.325,0.577,0.541,��쓌,4.2,��
2023/05/17,02:40,0.560,0.817,0.494,0.991,0.716,0.325,0.579,0.541,��쓌,2.8,��
2023/05/17,02:50,0.558,0.818,0.493,0.995,0.717,0.324,0.578,0.541,��쓌,2.3,��
2023/05/17,03:00,0.558,0.818,0.495,0.993,0.716,0.324,0.578,0.542,��쓌,3.9,��
2023/05/17,03:10,0.557,0.816,0.493,0.993,0.718,0.324,0.578,0.543,��쓌,2.9,��
2023/05/17,03:20,0.559,0.816,0.494,0.992,0.716,0.324,0.577,0.540,��쓌,2.5,��
2023/05/17,03:30,0.558,0.817,0.493,0.995,0.716,0.324,0.578,0.540,��쓌,2.6,��
2023/05/17,03:40,0.557,0.816,0.493,0.994,0.720,0.324,0.577,0.542,��쓌,1.7,��
2023/05/17,03:50,0.559,0.817,0.492,0.995,0.717,0.324,0.578,0.541,��쓌,1.5,��
2023/05/17,04:00,0.558,0.818,0.492,0.994,0.717,0.325,0.576,0.543,��쓌,1.4,��
2023/05/17,04:10,0.560,0.815,0.492,0.991,0.720,0.324,0.578,0.542,��쓌,1.2,��
2023/05/17,04:20,0.558,0.817,0.494,0.990,0.717,0.324,0.578,0.543,-,CALM,��
2023/05/17,04:30,0.559,0.815,0.492,0.992,0.717,0.325,0.578,0.541,���쓌,0.6,��
2023/05/17,04:40,0.557,0.817,0.493,0.994,0.719,0.324,0.579,0.540,��,0.8,��
2023/05/17,04:50,0.558,0.817,0.494,0.993,0.717,0.325,0.577,0.542,�k,0.9,��
2023/05/17,05:00,0.558,0.816,0.493,0.996,0.719,0.325,0.577,0.542,�k,1.1,��
2023/05/17,05:10,0.558,0.817,0.494,0.994,0.718,0.324,0.578,0.543,�k�k��,1.1,��
2023/05/17,05:20,0.560,0.817,0.494,0.993,0.720,0.323,0.580,0.543,�k�k��,2.5,��
2023/05/17,05:30,0.560,0.818,0.494,0.993,0.717,0.324,0.579,0.540,�k�k��,1.7,��
2023/05/17,05:40,0.558,0.817,0.493,0.995,0.717,0.325,0.578,0.543,�k�k��,2.0,��
2023/05/17,05:50,0.558,0.817,0.492,0.995,0.719,0.325,0.579,0.541,�k�k��,1.7,��
2023/05/17,06:00,0.558,0.818,0.495,0.994,0.716,0.324,0.578,0.542,�k,1.7,��
2023/05/17,06:10,0.559,0.816,0.495,0.992,0.717,0.325,0.578,0.541,�k�k��,1.2,��
2023/05/17,06:20,0.559,0.818,0.496,0.993,0.720,0.324,0.578,0.541,�k�k��,1.1,��
2023/05/17,06:30,0.559,0.819,0.494,0.993,0.717,0.324,0.578,0.542,�k��,0.6,��
2023/05/17,06:40,0.560,0.820,0.494,0.994,0.717,0.324,0.579,0.540,���k��,1.1,��
2023/05/17,06:50,0.560,0.818,0.493,0.994,0.718,0.323,0.580,0.543,-,CALM,��
2023/05/17,07:00,0.560,0.818,0.494,0.995,0.718,0.325,0.580,0.541,���k��,0.9,��
2023/05/17,07:10,0.559,0.816,0.494,0.995,0.717,0.324,0.580,0.543,���k��,0.8,��
2023/05/17,07:20,0.561,0.815,0.494,0.994,0.717,0.323,0.577,0.542,-,CALM,��
2023/05/17,07:30,0.559,0.817,0.495,0.995,0.719,0.323,0.578,0.542,��쐼,0.9,��
2023/05/17,07:40,0.562,0.818,0.495,0.993,0.718,0.324,0.579,0.542,�쓌,0.9,��
2023/05/17,07:50,0.560,0.819,0.494,0.996,0.719,0.323,0.578,0.543,��,1.2,��
2023/05/17,08:00,0.559,0.815,0.495,0.995,0.718,0.324,0.578,0.539,��,1.7,��
2023/05/17,08:10,0.559,0.817,0.496,0.996,0.717,0.323,0.576,0.540,��쓌,1.7,��
2023/05/17,08:20,0.559,0.817,0.496,0.996,0.719,0.325,0.576,0.538,��쓌,2.2,��
2023/05/17,08:30,0.561,0.816,0.494,0.994,0.718,0.324,0.578,0.538,��쓌,2.6,��
2023/05/17,08:40,0.560,0.816,0.494,0.993,0.719,0.323,0.577,0.539,��쓌,3.3,��
2023/05/17,08:50,0.559,0.818,0.494,0.996,0.717,0.325,0.577,0.537,��,4.6,��
2023/05/17,09:00,0.558,0.819,0.495,0.996,0.719,0.324,0.577,0.540,��,4.3,��
2023/05/17,09:10,0.559,0.819,0.492,0.994,0.718,0.324,0.576,0.539,��쓌,4.8,��
2023/05/17,09:20,0.561,0.819,0.494,0.995,0.718,0.324,0.575,0.539,��,5.1,��
2023/05/17,09:30,0.561,0.819,0.494,0.996,0.716,0.325,0.577,0.540,��쓌,5.4,��
2023/05/17,09:40,0.559,0.818,0.492,0.996,0.719,0.323,0.575,0.539,��쓌,6.3,��
2023/05/17,09:50,0.560,0.820,0.493,0.996,0.717,0.325,0.577,0.538,��쓌,5.5,��
2023/05/17,10:00,0.561,0.820,0.495,0.997,0.717,0.325,0.576,0.540,��,4.9,��
2023/05/17,10:10,0.561,0.820,0.495,0.997,0.718,0.325,0.577,0.541,��,5.3,��
2023/05/17,10:20,0.562,0.818,0.493,0.994,0.719,0.324,0.578,0.543,��,5.7,��
2023/05/17,10:30,0.561,0.820,0.495,0.997,0.718,0.325,0.577,0.541,��,5.4,��
2023/05/17,10:40,0.561,0.818,0.496,0.995,0.721,0.325,0.578,0.542,��,6.1,��
2023/05/17,10:50,0.562,0.819,0.496,0.999,0.721,0.325,0.577,0.541,��쓌,7.9,��
2023/05/17,11:00,0.561,0.822,0.496,0.998,0.721,0.324,0.577,0.542,��,8.3,��
2023/05/17,11:10,0.561,0.820,0.494,0.996,0.720,0.323,0.578,0.541,��쓌,8.9,��
2023/05/17,11:20,0.562,0.820,0.495,0.994,0.720,0.324,0.578,0.541,��쓌,7.1,��
2023/05/17,11:30,0.563,0.822,0.496,0.993,0.720,0.325,0.577,0.541,��,7.0,��
2023/05/17,11:40,0.562,0.821,0.495,0.994,0.721,0.325,0.577,0.541,��,6.9,��
2023/05/17,11:50,0.563,0.822,0.496,0.992,0.722,0.325,0.577,0.540,��,6.8,��
2023/05/17,12:00,0.564,0.821,0.496,0.994,0.721,0.324,0.578,0.540,��쓌,6.4,��
2023/05/17,12:10,0.563,0.824,0.496,0.993,0.723,0.326,0.578,0.541,��쓌,6.0,��
2023/05/17,12:20,0.564,0.822,0.497,0.994,0.722,0.326,0.578,0.541,��쓌,6.4,��
2023/05/17,12:30,0.562,0.823,0.496,0.994,0.722,0.324,0.577,0.541,��쓌,6.0,��
2023/05/17,12:40,0.564,0.821,0.496,0.995,0.724,0.326,0.578,0.541,��쓌,7.0,��
2023/05/17,12:50,0.564,0.821,0.497,0.993,0.723,0.326,0.578,0.542,��쓌,9.5,��
2023/05/17,13:00,0.564,0.821,0.497,0.998,0.723,0.327,0.579,0.543,��,10.2,��
2023/05/17,13:10,0.565,0.822,0.496,0.996,0.725,0.327,0.577,0.541,��쓌,8.2,��
2023/05/17,13:20,0.564,0.823,0.497,0.995,0.724,0.325,0.580,0.544,��쓌,7.4,��
2023/05/17,13:30,0.564,0.822,0.496,0.994,0.723,0.326,0.578,0.542,��쓌,6.3,��
2023/05/17,13:40,0.566,0.823,0.496,0.996,0.724,0.326,0.579,0.543,��쓌,7.5,��
2023/05/17,13:50,0.565,0.822,0.496,0.996,0.725,0.326,0.578,0.541,��쓌,8.3,��
2023/05/17,14:00,0.564,0.822,0.498,0.995,0.725,0.326,0.578,0.543,��쓌,7.6,��
2023/05/17,14:10,0.566,0.823,0.497,0.997,0.725,0.328,0.578,0.542,��쓌,5.7,��
2023/05/17,14:20,0.564,0.823,0.496,0.996,0.725,0.327,0.579,0.543,��쓌,4.8,��
2023/05/17,14:30,0.564,0.822,0.495,0.996,0.724,0.326,0.579,0.542,�쓌,3.8,��
2023/05/17,14:40,0.564,0.824,0.497,0.997,0.725,0.328,0.578,0.542,�쓌,3.8,��
2023/05/17,14:50,0.564,0.823,0.498,0.995,0.724,0.326,0.578,0.543,���쓌,3.1,��
2023/05/17,15:00,0.568,0.825,0.498,0.996,0.726,0.328,0.580,0.542,��,3.0,��
2023/05/17,15:10,0.565,0.822,0.498,0.998,0.724,0.326,0.578,0.543,���k��,1.4,��
2023/05/17,15:20,0.567,0.824,0.499,0.999,0.726,0.328,0.580,0.544,��,1.2,��
2023/05/17,15:30,0.567,0.822,0.499,0.997,0.725,0.327,0.581,0.541,��,2.0,��
2023/05/17,15:40,0.566,0.823,0.498,0.998,0.728,0.329,0.582,0.543,�k��,1.7,��
2023/05/17,15:50,0.566,0.823,0.499,0.997,0.726,0.328,0.583,0.543,�k��,1.4,��
2023/05/17,16:00,0.566,0.824,0.499,0.999,0.728,0.328,0.583,0.544,���k��,1.9,��
2023/05/17,16:10,0.568,0.826,0.500,0.999,0.726,0.327,0.583,0.544,���쓌,2.2,��
2023/05/17,16:20,0.567,0.824,0.500,0.997,0.726,0.328,0.583,0.543,�k��,0.6,��
2023/05/17,16:30,0.570,0.825,0.499,0.999,0.728,0.329,0.583,0.543,�k�k��,1.7,��
2023/05/17,16:40,0.569,0.825,0.500,1.000,0.728,0.329,0.582,0.543,�k��,0.9,��
2023/05/17,16:50,0.568,0.824,0.498,1.000,0.728,0.330,0.582,0.543,���k��,1.2,��
2023/05/17,17:00,0.567,0.826,0.501,0.999,0.727,0.329,0.582,0.542,���k��,3.9,��
2023/05/17,17:10,0.569,0.824,0.500,0.998,0.729,0.331,0.582,0.545,���k��,4.5,��
2023/05/17,17:20,0.569,0.827,0.501,1.000,0.729,0.330,0.581,0.545,���k��,5.3,��
2023/05/17,17:30,0.567,0.825,0.501,1.002,0.725,0.331,0.583,0.544,���k��,6.6,��
2023/05/17,17:40,0.568,0.827,0.500,1.002,0.727,0.330,0.582,0.546,���k��,6.1,��
2023/05/17,17:50,0.568,0.825,0.502,1.004,0.727,0.329,0.582,0.544,���k��,5.7,��
2023/05/17,18:00,0.568,0.825,0.501,1.003,0.726,0.331,0.582,0.544,���k��,4.8,��
2023/05/17,18:10,0.568,0.824,0.500,1.001,0.727,0.328,0.581,0.546,��,4.3,��
2023/05/17,18:20,0.568,0.826,0.500,1.002,0.727,0.328,0.581,0.545,��,5.1,��
2023/05/17,18:30,0.566,0.827,0.498,1.005,0.728,0.328,0.580,0.545,��,6.0,��
2023/05/17,18:40,0.567,0.825,0.499,1.003,0.729,0.329,0.581,0.544,��,7.2,��
2023/05/17,18:50,0.569,0.827,0.499,1.004,0.727,0.328,0.580,0.544,���k��,7.0,��
2023/05/17,19:00,0.570,0.826,0.499,1.002,0.728,0.329,0.582,0.545,���k��,6.4,��
2023/05/17,19:10,0.568,0.826,0.499,1.005,0.728,0.329,0.581,0.545,���k��,5.9,��
2023/05/17,19:20,0.569,0.827,0.499,1.002,0.728,0.328,0.582,0.547,���k��,5.8,��
2023/05/17,19:30,0.569,0.828,0.500,1.001,0.730,0.328,0.582,0.546,���k��,6.0,��
2023/05/17,19:40,0.569,0.827,0.500,1.003,0.728,0.328,0.581,0.545,���k��,5.0,��
2023/05/17,19:50,0.569,0.826,0.501,1.002,0.728,0.329,0.582,0.545,��,5.0,��
2023/05/17,20:00,0.569,0.827,0.500,1.003,0.728,0.328,0.580,0.546,��,4.3,��
2023/05/17,20:10,0.568,0.828,0.500,1.004,0.729,0.327,0.582,0.545,��,4.0,��
2023/05/17,20:20,0.569,0.826,0.501,1.004,0.729,0.328,0.582,0.545,��,5.9,��
2023/05/17,20:30,0.568,0.829,0.500,1.004,0.728,0.329,0.581,0.544,���k��,6.5,��
2023/05/17,20:40,0.568,0.825,0.502,1.006,0.729,0.329,0.582,0.545,���k��,6.8,��
2023/05/17,20:50,0.570,0.825,0.501,1.005,0.728,0.330,0.581,0.544,���k��,8.3,��
2023/05/17,21:00,0.570,0.828,0.501,1.007,0.729,0.329,0.580,0.544,���k��,7.3,��
2023/05/17,21:10,0.569,0.827,0.501,1.005,0.728,0.329,0.581,0.545,���k��,9.0,��
2023/05/17,21:20,0.569,0.827,0.501,1.006,0.728,0.328,0.581,0.545,���k��,9.0,��
2023/05/17,21:30,0.569,0.827,0.500,1.004,0.729,0.329,0.581,0.545,���k��,8.8,��
2023/05/17,21:40,0.568,0.827,0.502,1.006,0.729,0.329,0.581,0.544,���k��,9.1,��
2023/05/17,21:50,0.569,0.828,0.500,1.005,0.728,0.328,0.582,0.545,���k��,9.8,��
2023/05/17,22:00,0.570,0.828,0.501,1.006,0.729,0.328,0.581,0.545,���k��,7.1,��
2023/05/17,22:10,0.568,0.827,0.502,1.008,0.727,0.329,0.582,0.545,���k��,5.9,��
2023/05/17,22:20,0.567,0.825,0.499,1.008,0.728,0.328,0.581,0.545,���k��,4.2,��
2023/05/17,22:30,0.567,0.826,0.501,1.008,0.728,0.327,0.581,0.545,�k��,4.4,��
2023/05/17,22:40,0.568,0.828,0.500,1.006,0.729,0.328,0.582,0.546,���k��,4.9,��
2023/05/17,22:50,0.570,0.825,0.500,1.006,0.730,0.328,0.581,0.544,���k��,5.5,��
2023/05/17,23:00,0.567,0.828,0.500,1.006,0.729,0.328,0.582,0.544,���k��,5.3,��
2023/05/17,23:10,0.568,0.827,0.500,1.005,0.727,0.328,0.580,0.546,��,4.2,��
2023/05/17,23:20,0.568,0.828,0.500,1.005,0.732,0.328,0.581,0.543,��,4.1,��
2023/05/17,23:30,0.566,0.827,0.501,1.007,0.727,0.329,0.581,0.544,��,4.9,��
2023/05/17,23:40,0.567,0.828,0.500,1.006,0.728,0.328,0.580,0.545,��,5.5,��
2023/05/17,23:50,0.566,0.827,0.500,1.008,0.728,0.328,0.580,0.544,��,3.5,��
